{"data":{"norad_id":55314,"epoch":"2026-05-25T03:34:06.936960Z","epoch_age_seconds":72866,"freshness":"FRESH","line1":"1 55314U 23010AX  26145.14869140  .00000362  00000+0  38108-4 0  9999","line2":"2 55314  69.9985 171.7307 0003351 269.3276  90.7499 14.98323820186091","mean_motion":14.9832382,"eccentricity":0.0003351,"inclination_deg":69.9985,"raan_deg":171.7307,"arg_perigee_deg":269.3276,"mean_anomaly_deg":90.7499,"bstar":3.8108e-5,"rev_number":18609,"period_min":96.107395529492,"perigee_km":569.74598610839,"apogee_km":574.40401819224,"semimajor_km":6950.2120021503,"source":"CELESTRAK","updated_at":"2026-05-25T13:38:17.758072Z"}}